Other Public Products
Issued by NWS Grand Forks, ND

Home | Current Version | Previous Version | Text Only | Print | Product List | Glossary Off
Versions: 1 2 3 4 5 6 7 8 9 10 11 12 13 14 15 16 17 18 19 20 21 22 23 24 25 26 27 28 29 30 31 32 33 34 35 36 37 38 39 40 41 42 43 44 45 46 47 48 49 50

000
FPUS83 KFGF 161131
OPUFGF
PRAIRIE TO PINES WEATHER ROUNDUP
NATIONAL WEATHER SERVICE EASTERN NORTH DAKOTA/GRAND FORKS ND
600 AM CDT TUE SEP 16 2014

 **SATELLITE DATA USED TO AUGMENT SKY COVER AT AUTOMATED STATIONS**
 *****  WEATHER ACROSS EASTERN NORTH DAKOTA  *****

CITY           SKY/WX    TMP DP  RH WIND       PRES   REMARKS
GRAND FORKS    CLEAR     49  38  65 SW9       30.03F
GRAND FORKS AF CLEAR     46  40  79 W6        30.04F
GRAND CITY NWS   N/A     46 N/A N/A SW3         N/A
BUXTON           N/A     44  42  92 SW6         N/A
DEVILS LAKE    CLEAR     50  39  66 SW9       30.03S
FARGO          CLEAR     46  37  71 SW10      30.10S
WAHPETON ARPT  SUNNY     36  32  87 SE3       30.13S
$$

 *****  WEATHER ACROSS CENTRAL AND WESTERN NORTH DAKOTA  *****

CITY           SKY/WX    TMP DP  RH WIND       PRES   REMARKS
JAMESTOWN      CLEAR     38  34  85 S3        30.07F
BISMARCK       CLEAR     42  39  89 NE5       30.06F
MINOT          CLEAR     48  39  71 SW9       30.01F
MINOT AFB      CLEAR     44  40  86 SW5       30.00F
GARRISON         N/A     46  40  79 S5        30.04F
WILLISTON      CLEAR     35  32  88 CALM      30.03S
DICKINSON      CLEAR     39  36  89 SW3       30.02F
HETTINGER      CLEAR     37  34  89 CALM      30.05S
$$

 *****  OTHER OBSERVATIONS NORTHEAST NORTH DAKOTA  *****

CITY           SKY/WX    TMP DP  RH WIND       PRES   REMARKS
WALHALLA       FAIR      52  39  62 W8G17     29.99S
LANGDON        FAIR      39  37  93 SW9       30.02S
CAVALIER       FAIR      50  39  66 W9        29.99S
GRAFTON        FAIR      46  41  81 SW10      30.01S
CANDO          FAIR      41  37  87 W6        30.03S
FORT TOTTEN      N/A     46  38  73 S6        29.95S
ROLLA          FAIR      45  37  76 SW9       30.02S
RUGBY          FAIR      41  39  93 S3        30.03S
 ***** THE ABOVE OBSERVATIONS ARE NON NWS ARE NOT QUALITY
        CONTROLLED AND MAY MIS-REPORT RAIN FOR SNOW...
$$

 *****  OTHER OBSERVATIONS SOUTHEAST NORTH DAKOTA *****

CITY           SKY/WX    TMP DP  RH WIND       PRES   REMARKS
COOPERSTOWN    NOT AVBL
VALLEY CITY    FAIR      39  37  93 S7        30.09S
OAKES            N/A     37  37 100 S8        30.11F
GWINNER        SUNNY     43  37  81 SW8       30.13S
SHEYENNE NWR     N/A     42  37  83 SW6       29.95
BUFFALO          N/A     44  35  69 SW8         N/A
WYNDMERE         N/A     36  36 100 SW3         N/A
 ***** THE ABOVE OBSERVATIONS ARE NON NWS ARE NOT QUALITY
       CONTROLLED AND MAY MIS-REPORT RAIN FOR SNOW...
$$

  *****  WEATHER ACROSS NORTHERN MINNESOTA  *****

CITY           SKY/WX    TMP DP  RH WIND       PRES   REMARKS
FLAG ISLAND    CLOUDY    52  41  66 W15       29.93S
WARROAD        CLOUDY    50  43  76 SW10      29.98F
ROSEAU         CLOUDY    52  43  71 SW8       29.99S
HALLOCK        CLEAR     41  37  87 S8        29.99F
THF RVR FALLS  CLEAR     43  37  81 SW9       30.05S
HALSTAD          N/A     39  37  94 S7          N/A
FOSSTON        CLEAR     37  36  93 S8        30.09S
BAUDETTE       MOCLDY    48  40  73 SW8       29.99F
WASKISH        PTCLDY    52  45  76 SW5G16    30.04S
CROOKSTON      CLEAR     41  37  87 S8        30.07S
$$
  *****  WEATHER ACROSS CENTRAL AND WEST MINNESOTA  *****

CITY           SKY/WX    TMP DP  RH WIND       PRES   REMARKS
BEMIDJI        CLEAR     42  37  82 SW5       30.07F
PARK RAPIDS    CLEAR     42  36  79 SW3       30.11S
WADENA         CLEAR     43  36  75 SW5       30.13S
DETROIT LAKES  CLEAR     45  37  76 SW6       30.12S
MOORHEAD       CLEAR     41  39  93 S7        30.11S
FERGUS FALLS   CLEAR     41  34  75 SE5       30.15S
ELBOW LAKE     FAIR      38  35  88 S7        30.14S
MORRIS MN      CLEAR     36  36 100 S5        30.14F
STAPLES        CLEAR     39  36  87 S3        30.13S
WHEATON        CLEAR     37  36  93 S5        30.16R
$$
  *****  WEATHER ELSEWHERE ACROSS MINNESOTA  *****

CITY           SKY/WX    TMP DP  RH WIND       PRES   REMARKS
DULUTH         PTCLDY    45  36  70 W13       30.09F
INTRNTL FALLS  CLEAR     39  37  92 SW7       29.99F
ELY            PTCLDY    41  37  87 SW5       30.04S
CLOQUET        CLEAR     43  37  81 SW6       30.11S
BRAINERD       CLEAR     39  35  86 SW3       30.14S
HIBBING        MOCLDY    34  31  88 CALM      30.08S
ALEXANDRIA     CLEAR     43  36  76 SW8       30.17S
SAINT CLOUD    CLEAR     40  36  86 S3        30.17F
MINNEAPOLIS    CLEAR     44  39  82 S3        30.19F
$$

  *****  WEATHER ACROSS SOUTH DAKOTA  *****

CITY           SKY/WX    TMP DP  RH WIND       PRES   REMARKS
SIOUX FALLS    CLEAR     39  38  96 CALM      30.20F
BROOKINGS      NOT AVBL
WATERTOWN      CLEAR     39  36  89 SE5       30.16F
HURON          CLEAR     40  36  86 SE5       30.15F
SISSETON         N/A     50  39  66 SW9       30.12F
ABERDEEN       CLEAR     33  32  96 S3        30.13F
MITCHELL       CLEAR     41  39  93 SE6       30.17F
PIERRE         CLEAR     46  40  79 SE10      30.05F
MOBRIDGE       CLEAR     50  42  74 S12       30.03F
RAPID CITY     CLEAR     42  39  89 N3        30.03F
$$

  *****  SOME WEATHER IN NEARBY STATES *****

CITY           SKY/WX    TMP DP  RH WIND       PRES   REMARKS
GLASGOW MT     CLEAR     44  34  67 E9        30.00S
GREAT FALLS MT PTCLDY    46  37  71 CALM      30.00F
CHEYENNE WY    CLEAR     58  38  47 W14       30.20S
SCOTTSBLUFF NE MOCLDY    52  51  97 E6        30.08F
OMAHA NE       PTCLDY    44  42  93 CALM      30.26S FOG
DES MOINES IA  CLEAR     46  42  86 CALM      30.25F
DAVENPORT IA   CLEAR     41  38  89 NW3       30.23S
CHICAGO IL     PTCLDY    46  43  89 NW3       30.19S
EAU CLAIRE WI  CLEAR     39  37  92 SW5       30.19F
LA CROSSE WI   CLOUDY    44  43  96 S5        30.22S FOG
$$

  *****  SOME NATIONAL WEATHER *****

CITY           SKY/WX    TMP DP  RH WIND       PRES   REMARKS
LA GUARDIA NY  MOCLDY    63  54  72 CALM      30.00S
RALEIGH NC     MOCLDY    68  65  90 CALM      30.06R FOG
ATLANTA GA     CLOUDY    72  70  93 CALM      30.10F FOG
NEW ORLEANS LA PTCLDY    76  74  93 CALM      30.05S
OKLAHOMA CITY  CLOUDY    71  68  90 CALM      30.15S
ALBUQUERQUE NM CLOUDY    66  55  67 E10       30.29F
SALT LAKE CITY CLEAR     66  43  43 S12       30.07F
LOS ANGELES CA CLEAR     74  62  66 E5        29.76F
BOISE ID       CLOUDY    76  43  30 SW9       29.98R
SEATTLE WA     PTCLDY    57  53  86 S7        29.89R
$$

*** WEATHER ACROSS MANITOBA...SASKATCHEWAN AND ONTARIO ***
                ***ONTARIO***

CITY           SKY/WX    TMP DP  RH WIND       PRES   REMARKS
GERALDTON      MOCLDY    46  41  81 W10       29.86F
THUNDER BAY    MOCLDY    39  39 100 W6        29.98F
SIOUX LOOKOUT  LGT RAIN  48  43  81 SW3       29.89S
TORONTO        PTCLDY    50  46  87 NW9       30.08R
BIG TROUT LK   PTCLDY    28  27  93 N9        29.99R WCI  20
PICKLE LAKE    LGT RAIN  37  36  93 NE9G21    29.92
DRYDEN         CLOUDY    50  43  76 W9        29.90S
KENORA         MOCLDY    52  39  62 W6        29.93R
$$
                *** MANITOBA***

CITY           SKY/WX    TMP DP  RH WIND       PRES   REMARKS
BRANDON        MOCLDY    46  41  81 W5        29.99S
DAUPHIN        PTCLDY    46  45  93 NE5       29.99R
ISLAND LAKE    MOCLDY    34  30  86 CALM      30.07R
PILOT MOUND      N/A     39  36  87 SW3         N/A
THE PAS        CLOUDY    37  32  81 E6        30.07S
THOMPSON       PTCLDY    19  19 100 CALM      30.14R
WINNIPEG       MOCLDY    54  41  62 W8        29.96S
LYNN LAKE      MOCLDY    25  21  86 MISG      30.14S
CHURCHILL      CLOUDY    32  28  86 N21G28    30.06R WCI  20
GILLAM         CLEAR     30  28  93 NW15      30.10R WCI  19
$$
                ***SASKATCHEWAN***

CITY           SKY/WX    TMP DP  RH WIND       PRES   REMARKS
ESTEVAN        CLEAR     39  34  81 NW5       30.02S
KINDERSLEY     CLEAR     41  37  87 S6        29.95S
LLOYDMINSTER   CLEAR     43  39  87 S5        29.93S
PRINCE ALBERT  PTCLDY    46  43  87 E7        29.94S
REGINA         CLEAR     39  36  87 E5        29.99F



USA.gov is the U.S. government's official web portal to all federal, state and local government web resources and services.